Theta_e
335 334 333 333 334 334 335 336 336 337 336 335 335 334 334 335 335 336 336 336 336 335 335 334 334 334 334 334 334 333 333 333 333 333 333 332 333 333 331 331 332 331 331 331 330 330 330 329 328 329 329 328 328 328 328 327 326 325 326 325 325 325 324
336 334 333 333 334 334 335 336 337 336 336 336 335 335 335 334 334 335 335 335 335 334 334 333 333 333 333 334 334 334 333 333 333 333 332 331 332 332 331 331 331 331 332 331 330 330 330 330 329 329 328 328 328 327 327 327 326 325 325 324 324 324 324
336 334 333 334 335 334 335 336 336 336 336 336 335 335 334 334 334 334 334 334 334 333 332 332 332 332 332 333 334 334 333 333 333 332 331 331 330 330 331 330 330 331 332 331 331 331 330 330 330 328 328 328 328 327 326 326 325 324 323 322 322 321 321
335 334 334 335 335 334 335 336 336 335 335 335 334 334 334 334 334 334 334 333 333 333 332 331 332 332 332 333 334 334 333 333 333 332 332 331 330 330 331 330 330 332 332 331 330 330 330 330 330 329 328 328 328 327 327 326 324 322 320 319 318 317 317
334 334 334 334 335 335 335 335 335 334 334 334 333 334 333 333 333 333 333 333 333 333 332 332 332 332 332 333 334 334 334 333 332 332 333 332 331 331 331 331 331 332 332 331 330 329 330 331 330 329 328 327 327 327 326 325 323 321 319 317 316 315 314
334 335 335 335 336 335 334 334 334 333 333 333 333 332 332 332 332 332 332 332 333 332 332 332 332 332 333 333 334 334 333 333 332 333 333 333 332 331 331 331 330 330 331 331 331 331 330 330 329 329 327 327 326 325 325 324 321 319 318 317 315 313 311
334 336 335 335 336 335 334 334 333 333 333 333 332 332 332 332 331 332 331 330 331 332 332 331 331 333 334 334 334 334 333 333 332 333 332 333 333 332 331 331 330 329 329 330 331 331 330 328 329 329 327 327 326 323 323 323 320 318 317 316 314 311 309
332 334 334 334 334 333 333 333 332 333 333 333 333 332 332 332 331 331 330 330 330 330 331 330 330 332 333 333 333 333 333 332 332 333 332 332 333 332 331 331 332 330 329 330 329 330 330 328 328 328 327 327 327 324 322 320 318 318 316 314 312 310 308
331 332 333 333 333 332 332 332 332 332 332 332 332 331 331 331 330 330 330 330 330 330 330 330 330 330 331 331 332 332 333 332 332 333 332 331 331 332 331 332 332 331 331 331 329 330 331 328 328 329 327 325 325 324 324 321 319 316 315 312 310 310 309
331 331 332 332 331 330 331 332 331 331 331 331 331 330 331 331 330 330 329 329 330 330 330 330 329 329 329 330 331 332 332 332 332 333 332 332 331 331 331 332 332 331 331 332 330 329 331 330 330 329 328 325 324 324 324 324 320 315 313 311 310 311 310
330 330 330 329 330 330 331 331 330 330 330 330 330 330 330 330 329 329 329 329 329 329 329 329 328 328 329 330 331 331 331 331 332 332 332 332 331 331 331 332 332 331 331 331 329 329 330 330 330 328 327 326 325 324 322 322 320 315 311 310 309 311 311
329 329 329 329 330 330 331 331 330 330 330 330 330 330 329 329 328 329 329 329 329 329 328 328 327 328 328 329 330 331 331 331 331 331 331 331 330 330 331 331 331 332 331 329 328 328 328 328 328 327 326 324 324 323 319 318 319 316 311 310 309 311 312
330 330 330 331 331 331 331 331 331 330 330 330 330 329 329 327 327 329 328 329 329 328 328 327 327 327 327 327 328 329 330 331 330 330 330 330 330 330 331 330 331 331 330 328 328 328 328 327 326 326 326 325 324 323 321 318 317 315 311 309 309 311 312
330 331 332 332 331 331 332 332 331 329 329 328 329 328 327 327 326 327 327 327 328 327 326 326 326 326 327 327 328 327 328 328 328 328 328 329 329 329 330 330 330 330 329 328 328 328 328 328 327 326 326 326 324 322 323 319 314 313 312 310 310 311 312
330 331 333 332 331 332 332 331 330 329 327 327 327 327 327 326 326 326 326 326 326 325 325 325 325 326 326 326 326 326 327 326 326 326 326 327 327 327 329 330 329 329 329 329 328 328 328 328 327 327 326 326 324 323 323 319 313 313 313 310 310 312 312
330 331 332 331 331 331 331 331 330 329 327 325 326 327 327 327 326 326 325 325 324 324 323 324 325 325 326 326 326 325 325 325 325 325 325 325 326 326 328 329 329 329 329 329 328 327 328 328 328 328 326 324 324 323 322 317 313 313 313 310 311 312 312
330 330 331 331 331 331 331 330 330 329 328 325 325 326 327 326 326 325 324 324 323 323 322 323 324 324 324 325 325 324 324 324 324 324 324 324 325 325 326 329 329 329 328 329 329 327 327 328 328 327 324 323 323 321 319 316 313 313 313 312 312 312 312
330 330 330 330 331 330 331 330 329 329 328 326 326 326 325 325 325 324 324 324 323 322 321 321 322 323 323 323 324 323 323 324 324 324 324 323 323 324 325 327 328 327 327 329 328 326 326 326 326 324 323 322 320 318 317 316 314 314 314 314 313 313 313
330 331 330 330 330 330 330 329 329 328 327 327 326 325 324 324 323 323 323 323 322 321 319 319 321 323 323 323 323 322 322 323 323 323 322 321 322 323 325 326 327 327 327 327 328 327 326 325 325 323 322 321 319 317 317 317 316 316 315 315 315 314 314
331 331 330 330 330 330 329 329 329 328 327 326 325 323 323 323 322 321 322 322 321 320 318 318 320 321 322 322 322 322 322 322 322 322 321 321 321 322 324 325 327 327 327 327 327 326 325 325 324 323 322 321 319 316 317 317 317 316 316 316 316 315 315
331 330 330 330 330 329 329 328 328 327 326 325 323 322 322 322 321 320 321 321 319 319 318 318 319 320 321 322 322 322 322 322 322 321 321 321 321 322 323 324 325 327 327 327 327 327 326 324 323 322 320 321 319 317 317 316 316 316 317 317 316 315 315
330 329 329 329 329 329 327 327 327 327 325 323 322 321 321 320 320 319 320 321 320 319 318 318 318 319 320 320 321 321 321 321 321 321 321 321 320 321 323 323 323 325 327 327 327 327 327 325 323 322 321 321 320 318 317 316 315 317 318 317 317 316 316
329 329 329 328 327 327 327 326 326 325 323 321 320 320 319 319 319 319 321 322 321 320 318 317 317 318 318 320 321 321 320 320 320 320 320 321 320 320 322 322 321 322 325 327 327 326 326 325 323 323 322 322 321 320 320 318 317 318 318 318 318 318 317
329 328 328 327 326 327 326 325 324 322 321 320 319 319 319 319 319 320 322 323 321 320 318 316 316 317 318 319 320 320 319 319 318 319 319 320 319 319 320 320 318 317 320 324 326 326 326 326 324 323 322 322 322 321 322 321 320 320 320 319 319 319 318
328 327 326 326 326 325 324 323 322 321 321 321 321 322 322 321 322 322 323 321 318 316 315 314 315 316 317 318 319 319 319 319 318 318 318 319 319 319 320 320 318 317 318 319 320 321 322 324 324 322 321 321 321 321 321 321 321 321 320 320 320 320 320
326 326 325 325 324 324 323 324 324 323 323 323 323 323 322 322 322 321 320 317 314 313 313 312 313 314 314 315 316 316 318 320 318 317 318 319 319 320 320 320 320 320 320 318 318 318 318 318 319 319 318 317 317 318 319 319 319 320 319 319 318 319 320
322 323 323 323 323 322 323 323 324 324 324 323 322 321 321 320 319 318 316 314 313 313 313 313 313 313 313 313 312 314 318 320 318 318 319 320 320 320 320 320 320 320 321 320 319 319 319 319 319 319 319 318 317 316 315 315 316 316 317 317 317 317 319
318 318 318 319 319 319 320 321 321 321 321 321 320 319 318 317 316 315 315 314 313 313 313 314 314 314 313 313 312 314 318 320 319 320 320 319 319 320 319 319 319 319 320 320 319 318 319 321 321 322 322 321 321 319 318 317 316 316 316 316 316 315 316
313 314 314 315 315 316 316 317 318 318 318 318 317 317 316 315 315 314 315 315 314 312 311 313 315 315 315 315 315 317 320 320 320 320 321 321 320 320 321 321 321 321 320 320 320 319 319 319 319 320 320 320 321 321 320 320 320 319 319 318 317 316 315
310 311 312 313 313 313 313 314 315 316 316 316 316 315 315 315 314 313 313 313 311 310 309 311 313 315 317 318 318 319 319 319 320 320 321 322 322 321 322 323 323 322 321 321 321 321 321 320 320 320 320 321 321 321 321 321 322 321 321 320 320 319 318
307 308 310 310 310 310 312 312 313 314 315 315 315 314 313 313 312 311 310 308 307 306 307 307 308 311 314 316 317 318 317 316 318 319 320 321 321 321 322 323 321 320 319 319 319 320 320 321 321 321 321 321 321 322 323 322 322 322 322 321 320 320 319
305 305 306 307 307 308 309 309 310 312 312 312 312 312 312 311 311 309 308 308 308 309 308 307 306 306 307 309 311 314 315 314 314 315 316 315 316 318 319 319 318 317 315 314 314 314 314 314 314 314 313 312 313 316 319 320 319 319 319 320 320 320 320
303 304 304 305 305 306 307 307 308 308 308 308 308 308 308 309 308 307 307 307 307 307 305 303 302 302 302 301 302 306 310 312 311 311 311 310 310 313 315 315 315 314 312 311 310 310 310 309 308 308 307 305 304 306 308 310 310 310 310 311 314 316 318
302 302 303 303 304 304 305 306 306 307 307 307 307 306 306 305 306 306 307 306 303 301 300 298 298 299 299 298 298 299 302 304 305 304 304 306 307 310 312 313 311 309 308 308 308 308 308 308 307 307 306 303 301 300 300 300 301 301 302 302 304 307 311
302 302 302 302 303 304 303 304 304 305 305 306 306 306 306 306 306 306 307 307 305 302 300 299 299 299 298 297 297 297 297 298 298 298 299 302 305 306 307 308 307 305 305 304 305 305 305 304 304 303 302 300 299 298 298 298 298 298 298 299 300 302 304
302 302 303 303 304 304 304 303 303 303 304 304 305 305 306 307 307 307 307 307 306 305 303 303 302 301 299 298 298 297 297 297 297 296 296 299 302 303 304 304 303 303 302 301 300 300 299 299 298 298 297 297 297 297 297 298 298 299 300 301 302 303 303
302 303 303 303 304 304 304 304 304 305 305 305 305 305 305 306 307 307 307 307 306 305 305 304 303 302 301 300 299 299 299 299 298 297 298 300 301 302 301 301 300 299 298 297 297 297 297 297 298 298 299 299 299 298 298 299 300 303 305 306 306 306 307
Wind_Speed
14 15 14 15 16 15 14 13 12 12 13 12 12 12 12 11 11 11 11 10 9 9 9 8 8 8 8 8 9 9 8 8 7 9 11 10 8 7 8 6 5 5 5 8 9 8 5 3 5 6 7 9 9 9 11 11 11 13 14 13 13 14 14
13 16 17 15 13 13 13 13 11 12 13 12 12 12 12 11 11 11 10 9 9 8 8 7 6 7 7 8 9 8 8 8 7 7 9 9 8 8 9 7 6 6 7 8 9 9 7 5 4 5 7 9 8 9 13 13 12 12 12 12 14 16 16
15 15 18 15 12 13 13 13 12 13 13 12 12 12 11 11 11 10 10 9 9 8 7 7 7 7 7 8 9 9 8 7 7 7 6 7 8 7 7 7 7 8 8 7 6 7 7 5 4 7 11 11 8 9 13 13 12 11 10 12 14 15 15
18 17 18 15 13 14 14 14 14 13 13 13 12 12 11 10 9 10 9 9 9 8 7 7 8 8 8 8 9 9 8 8 7 6 5 7 8 7 6 7 7 8 7 6 8 9 7 5 5 7 11 13 11 10 12 12 12 11 11 12 13 12 13
19 18 19 17 15 16 15 15 15 14 14 13 13 12 11 11 10 9 9 8 8 8 7 7 8 8 8 8 8 8 8 8 7 7 7 7 8 8 7 8 8 8 7 7 10 10 8 8 9 8 10 13 12 11 14 15 14 13 12 13 13 13 14
19 18 17 15 15 17 16 16 15 15 14 13 12 12 11 11 10 9 9 8 7 7 7 7 7 7 7 7 7 7 8 8 8 7 7 7 7 7 8 8 9 8 8 8 9 10 10 12 11 9 12 13 11 12 15 17 16 15 13 14 14 14 14
21 19 18 15 14 16 16 16 15 14 13 12 12 11 10 10 9 8 8 7 7 7 7 6 6 7 8 7 6 7 7 8 8 7 7 7 7 7 7 8 7 7 9 9 9 9 10 13 12 10 11 12 12 14 15 16 16 14 14 15 15 15 15
23 21 21 18 13 14 16 16 14 13 13 12 12 12 11 10 9 9 8 7 7 7 7 7 6 6 7 7 6 7 7 7 7 8 8 8 8 7 7 8 7 7 8 8 10 10 10 13 14 11 10 9 7 8 10 13 15 14 15 16 16 17 17
23 22 21 19 15 14 16 15 13 13 13 13 13 12 12 11 10 9 8 7 7 7 7 6 6 5 6 6 5 6 7 7 7 7 7 8 9 8 7 7 8 8 6 7 10 11 9 11 12 10 10 10 8 4 4 7 9 11 15 17 17 16 15
24 23 22 21 17 15 15 14 13 13 13 13 14 13 12 11 10 9 9 8 7 7 6 5 5 6 6 5 5 6 7 7 7 7 7 7 8 9 8 8 9 8 7 8 10 12 10 9 12 11 10 10 9 5 4 4 5 10 15 17 18 16 15
24 23 23 21 17 16 16 15 13 14 14 14 14 13 12 11 10 9 9 8 8 7 6 5 5 5 6 5 4 6 7 7 7 7 7 7 7 8 9 9 9 9 9 9 10 13 11 10 13 13 11 11 7 4 7 6 3 11 16 16 18 18 17
26 22 22 21 20 20 18 15 15 15 14 14 13 12 11 10 10 9 8 8 7 6 6 5 4 4 5 5 4 5 5 6 7 6 7 7 6 7 8 9 10 9 9 10 10 12 12 10 12 13 12 12 8 5 10 12 5 8 16 17 19 20 18
27 22 21 22 22 21 18 16 16 15 14 13 13 12 11 11 11 9 8 8 7 6 5 4 4 4 5 4 3 4 4 4 6 6 6 6 5 6 7 8 10 10 9 10 10 11 11 9 11 13 11 11 8 6 7 13 10 8 13 17 20 21 18
28 22 22 23 22 20 18 17 16 15 14 13 13 13 11 11 10 9 9 9 7 7 5 4 4 3 4 5 4 4 4 4 5 6 6 5 5 5 6 8 10 10 10 11 10 10 10 10 11 14 11 8 9 9 7 9 14 11 12 18 20 20 18
30 25 23 22 21 20 19 18 17 15 14 14 13 12 11 11 10 9 9 9 8 7 5 4 4 4 5 5 4 5 5 4 6 7 6 5 5 5 4 6 8 10 10 10 10 10 11 11 10 12 12 10 11 12 9 11 19 14 13 18 21 20 19
31 31 27 24 22 20 19 18 17 16 14 13 13 11 10 10 9 9 9 9 8 7 5 5 4 4 5 6 5 5 4 4 5 6 6 5 6 7 4 4 7 9 11 11 12 11 11 12 10 10 13 15 14 12 11 15 22 18 15 18 20 21 20
32 33 30 27 24 21 20 18 17 16 14 13 13 11 11 10 8 8 8 9 9 7 5 5 4 4 5 6 5 5 3 3 4 5 5 4 5 7 5 3 5 7 9 11 12 11 11 13 12 12 15 17 15 10 11 19 23 21 18 17 17 21 21
31 32 30 28 26 22 20 19 17 15 14 13 12 11 12 10 7 8 8 8 9 8 6 6 4 4 5 5 5 5 4 4 5 5 4 2 3 5 4 3 3 5 7 9 10 11 13 13 12 13 16 18 13 7 10 19 23 21 20 18 17 18 20
28 29 28 27 25 22 20 19 17 15 13 13 12 11 11 9 8 8 8 7 9 7 6 6 5 4 5 4 4 4 4 5 5 3 4 3 3 5 4 3 3 6 8 9 9 9 12 15 15 14 16 16 12 9 9 14 18 20 21 19 17 17 19
26 26 26 27 24 22 19 18 17 16 13 13 13 12 10 9 8 8 8 7 8 8 7 6 6 5 4 4 4 3 3 4 3 3 3 3 3 5 4 3 2 5 8 8 10 8 8 13 15 14 15 12 10 13 13 11 12 18 21 20 18 17 18
25 25 25 25 24 22 19 18 16 14 13 13 13 12 10 9 8 8 8 8 9 9 8 7 7 5 4 5 5 4 4 2 2 3 2 1 5 5 3 2 2 3 7 8 9 7 6 8 10 12 13 9 7 15 17 13 11 13 17 17 18 19 17
25 24 24 24 22 21 20 17 14 13 13 13 12 11 11 10 9 8 9 10 10 9 7 6 7 5 5 7 6 3 4 4 2 4 3 0 4 4 4 4 4 2 6 7 7 6 6 6 5 7 8 3 4 12 14 12 12 9 8 10 13 17 17
26 24 23 23 21 20 18 15 13 14 14 13 12 12 11 10 9 9 11 11 10 9 8 7 7 5 5 7 6 4 3 3 2 3 5 4 3 4 6 5 3 3 4 6 8 8 8 5 2 2 3 1 4 6 4 5 8 7 7 9 9 10 11
24 24 22 23 21 19 17 12 11 14 14 13 12 12 12 11 11 12 11 10 9 8 7 7 6 5 5 6 7 6 4 1 1 1 1 2 3 6 8 6 5 5 5 4 8 8 7 6 4 2 2 1 2 3 3 3 4 6 8 9 10 9 11
21 21 21 21 20 19 15 10 11 15 15 14 14 14 14 14 14 13 11 9 8 7 7 6 5 5 4 4 6 6 5 3 0 1 1 1 1 5 8 7 7 7 6 6 5 5 5 6 7 6 5 4 4 5 6 6 6 7 7 7 8 9 11
22 22 21 20 19 18 16 13 14 17 16 16 17 16 16 16 15 13 11 9 8 7 7 6 5 5 5 4 5 3 3 4 0 2 2 1 3 2 6 9 8 7 7 5 3 2 3 5 6 7 7 7 8 8 9 10 10 10 10 9 10 11 9
25 25 24 23 22 21 20 20 19 19 18 18 18 17 16 15 14 12 10 10 9 8 7 6 5 6 5 5 6 4 2 5 3 2 3 3 4 6 5 5 5 6 7 5 4 4 4 4 4 4 4 6 8 10 11 13 14 15 16 16 16 16 13
27 27 27 27 26 24 23 23 22 20 20 19 17 16 15 13 12 11 10 10 9 9 9 7 6 6 6 5 5 3 2 5 4 5 5 4 3 4 3 2 3 4 5 5 5 5 4 5 4 3 4 5 6 7 10 12 13 15 18 19 20 20 19
27 26 26 26 25 23 22 23 22 19 19 18 16 14 12 10 9 7 6 6 7 8 8 7 6 5 5 6 4 3 2 2 2 4 4 2 2 3 2 1 3 3 3 2 2 4 5 5 5 5 5 6 7 8 9 10 12 14 16 18 20 20 21
25 24 23 23 21 20 20 20 19 17 16 15 14 14 13 11 10 9 8 6 6 7 7 7 5 4 4 5 4 5 5 3 2 1 1 1 1 2 1 1 1 1 2 3 3 3 5 5 5 6 6 8 9 10 10 8 8 10 12 15 18 20 21
25 24 23 21 20 19 18 16 15 13 12 12 12 14 15 14 13 12 11 9 7 7 6 6 6 4 4 3 2 3 5 6 5 3 3 3 1 1 3 3 2 2 4 5 6 6 6 6 7 7 7 8 9 9 10 10 10 11 11 14 17 19 21
27 25 23 21 21 21 19 17 16 15 13 13 13 13 13 13 12 10 10 9 7 6 6 6 6 5 5 4 3 3 3 5 7 7 6 7 6 2 1 2 2 3 2 3 5 6 7 6 7 7 8 9 10 9 10 12 14 16 17 17 18 18 21
26 25 23 21 20 20 19 18 17 18 17 15 14 12 10 10 10 9 9 8 6 6 8 8 8 7 7 6 4 2 2 3 5 6 5 8 9 6 2 1 1 0 1 4 5 6 7 8 8 9 11 12 12 13 15 17 18 20 21 22 22 21 22
24 23 22 21 19 18 17 16 16 17 16 15 13 12 10 10 11 9 8 7 7 8 9 9 9 9 8 7 5 4 4 5 5 6 5 6 8 8 5 2 4 5 6 7 9 10 10 11 12 14 15 16 17 18 20 21 22 23 23 24 24 23 22
24 23 22 21 20 19 17 15 15 15 14 13 12 11 9 9 9 8 7 7 8 9 9 10 11 11 10 9 8 7 7 6 6 6 5 4 5 8 7 4 8 10 12 13 14 15 16 17 18 19 20 21 21 21 21 21 21 22 23 23 23 22 21
25 24 23 21 21 19 16 15 14 14 12 10 9 9 8 6 6 7 7 6 6 7 9 11 12 13 12 12 11 11 10 10 8 7 6 5 5 6 7 9 12 15 16 18 18 18 18 18 18 18 18 17 17 17 18 19 18 18 18 18 19 20 21
25 24 22 21 20 17 14 13 12 11 10 8 7 7 6 5 5 6 7 8 6 5 6 9 12 13 13 14 14 13 13 12 11 9 8 6 6 7 10 12 14 15 16 17 17 16 16 15 14 13 13 13 13 14 15 16 15 14 13 13 14 15 17
Wind_Direction
174 179 179 181 181 180 184 182 182 185 180 177 177 175 176 179 179 180 180 178 178 181 185 190 194 192 193 187 176 174 176 175 173 159 156 163 155 152 165 154 132 134 137 138 146 152 139 126 150 152 152 150 145 147 143 140 139 136 141 144 135 129 129
172 177 179 183 184 180 181 183 183 182 178 177 176 172 172 172 169 171 172 171 171 176 181 185 189 190 194 185 172 175 173 167 180 172 161 166 162 159 164 156 143 141 133 129 141 148 133 132 154 147 146 142 128 135 142 145 148 146 147 146 135 130 131
169 173 181 180 180 181 182 185 184 181 177 173 171 170 170 169 165 165 167 169 170 172 176 180 182 179 182 180 174 179 174 166 176 174 163 166 166 165 164 164 158 144 139 135 138 141 130 132 143 144 153 147 127 136 148 148 147 144 140 134 128 125 127
174 173 177 174 182 186 180 183 184 179 173 169 169 168 166 166 164 163 165 169 170 170 173 176 175 172 175 178 176 177 176 173 174 168 157 154 157 163 164 165 168 157 149 151 154 149 141 149 147 146 156 148 138 151 159 155 147 141 137 133 133 130 131
180 176 179 179 184 183 178 182 181 173 171 169 168 167 168 167 162 161 163 164 167 169 172 170 167 171 176 179 174 171 175 174 168 165 167 160 154 158 161 162 167 161 151 156 158 152 155 163 148 140 153 150 145 155 168 167 152 146 147 141 140 142 145
183 178 184 184 181 178 178 179 176 172 169 167 166 165 165 164 160 161 161 161 164 165 167 166 166 169 172 178 176 171 173 171 168 167 168 168 165 164 165 168 174 168 156 160 162 157 164 163 150 146 157 160 153 152 172 175 153 147 157 153 151 151 153
189 184 184 179 176 178 179 178 176 173 168 165 166 165 161 156 156 161 160 160 161 159 160 162 165 167 167 172 175 174 173 171 174 175 172 173 166 161 162 160 170 175 164 168 171 164 167 166 161 163 163 161 159 159 172 170 150 151 164 158 155 152 152
198 192 184 174 174 181 182 179 176 172 168 166 166 165 162 157 157 160 159 159 159 156 156 155 155 161 166 169 173 177 178 177 178 176 182 185 171 162 167 160 163 178 177 184 184 172 170 174 173 175 177 166 157 165 166 154 151 161 163 154 151 150 151
197 190 183 174 174 185 185 178 172 169 168 167 164 162 161 159 159 160 159 160 158 153 153 150 150 161 170 172 177 176 173 179 183 178 186 191 179 174 178 171 168 176 180 184 185 177 173 186 188 189 195 176 150 157 163 151 158 162 157 147 138 142 152
187 185 180 169 171 186 184 175 169 165 164 162 158 157 158 159 159 160 162 162 155 151 153 150 154 169 173 173 186 188 180 183 186 184 189 193 188 184 181 179 173 176 186 178 176 176 168 184 195 194 203 189 165 167 168 152 154 153 157 151 137 139 157
180 181 171 163 175 186 176 167 164 160 158 157 154 154 157 157 156 157 159 158 154 153 156 158 162 166 163 166 188 196 192 193 190 186 193 201 201 190 184 187 176 176 199 194 181 183 175 182 194 193 204 207 206 199 156 139 142 153 157 155 147 150 163
174 177 168 168 181 179 168 162 160 156 153 152 153 155 155 154 154 153 151 152 154 155 156 161 161 150 150 164 182 186 188 197 194 187 192 205 205 188 188 197 183 176 198 196 182 187 186 188 195 196 202 205 220 232 158 141 137 162 162 156 151 157 167
168 175 172 173 174 167 164 162 157 155 151 151 154 156 154 154 155 154 154 155 155 157 159 161 162 149 151 160 163 174 177 182 188 180 179 193 192 182 190 193 183 180 194 192 182 184 185 190 196 189 192 199 214 241 183 147 136 154 168 159 151 159 169
164 170 169 168 167 164 163 159 155 154 151 153 156 155 154 154 155 158 161 162 160 162 163 160 160 150 150 156 159 173 171 168 182 171 162 178 180 181 190 184 178 181 190 190 181 179 182 189 195 186 184 202 206 220 228 162 143 146 159 156 153 160 167
159 163 166 167 166 162 159 157 157 155 153 155 153 152 154 153 159 166 163 166 168 162 161 156 160 163 156 156 162 170 173 189 192 166 151 171 178 178 190 186 184 183 186 192 187 185 186 185 193 193 191 201 200 211 228 168 150 149 148 151 157 162 166
156 161 167 169 165 158 157 158 158 154 153 154 150 151 154 152 164 172 168 175 169 154 156 155 160 171 156 154 165 170 181 200 179 140 142 187 189 178 181 193 194 185 184 191 189 189 193 188 192 198 198 203 207 217 217 171 157 154 150 153 162 162 168
159 163 166 166 162 158 158 159 157 154 154 153 151 154 153 154 169 171 173 181 162 146 153 155 169 179 157 164 175 166 168 165 136 133 164 203 182 162 163 182 193 191 189 189 183 180 188 194 195 194 199 208 215 218 196 171 162 160 160 165 170 166 172
163 163 162 159 158 158 157 156 156 155 155 155 154 151 149 157 167 166 180 180 151 145 156 156 175 180 161 177 179 167 173 161 153 163 158 106 92 117 135 160 174 194 196 183 176 176 181 188 192 193 202 212 215 202 167 162 164 166 167 172 181 178 176
161 160 158 155 156 157 154 155 156 156 157 157 152 147 149 160 165 164 181 174 147 153 168 165 178 171 157 174 176 170 170 156 160 157 112 92 73 73 105 157 189 209 201 181 178 187 184 181 186 199 212 215 203 180 167 166 167 168 170 176 190 188 174
158 157 156 153 153 154 154 159 158 155 157 156 149 149 154 161 162 165 175 166 149 156 161 155 156 148 147 167 175 168 147 142 156 128 105 141 118 67 84 134 170 206 198 182 185 200 200 189 194 208 220 223 197 178 185 193 180 172 173 178 191 194 180
156 154 153 151 150 152 157 161 158 155 157 152 148 152 155 156 162 169 165 147 137 141 140 136 139 130 114 135 151 159 159 176 171 124 92 88 92 73 90 111 67 178 184 178 181 195 209 203 207 210 216 235 210 183 186 195 193 185 183 181 188 199 196
154 150 149 150 148 149 154 158 158 159 156 150 149 152 151 154 164 160 139 126 124 126 123 124 133 122 89 105 117 137 168 193 202 160 176 155 80 86 123 109 54 112 171 176 178 185 193 200 209 199 200 218 169 177 186 193 200 206 207 200 196 199 201
153 150 147 149 148 146 150 158 161 157 153 150 150 149 145 148 150 135 120 115 115 116 116 119 123 113 90 97 102 102 138 181 233 196 187 186 153 127 124 114 80 98 150 176 186 190 192 198 207 164 180 106 129 166 200 201 204 224 242 244 235 210 204
151 150 145 145 148 145 148 162 162 150 147 145 141 138 135 132 130 126 119 114 111 112 121 126 125 125 109 97 101 100 97 117 256 247 197 194 162 136 122 105 98 107 109 144 179 190 195 212 229 200 186 227 174 203 258 264 246 255 258 259 257 242 231
136 139 140 140 141 139 145 167 160 143 138 134 129 127 126 125 125 126 124 120 120 123 128 135 146 159 149 119 114 103 69 53 145 202 202 209 124 144 142 124 108 114 115 117 143 170 183 204 222 226 227 231 228 228 237 253 266 270 274 283 280 264 250
115 122 131 135 136 136 138 139 131 124 118 117 121 121 119 121 121 122 122 123 125 126 129 136 151 167 175 174 168 153 35 29 157 212 192 123 30 63 128 128 125 138 147 134 125 169 199 202 208 222 235 238 241 242 242 250 259 264 271 281 287 285 279
105 110 118 124 127 129 129 122 115 112 111 114 117 115 112 113 111 110 116 122 125 126 129 137 150 167 181 188 188 192 17 23 33 58 78 77 44 37 62 92 110 132 150 168 191 209 215 211 204 223 248 252 251 251 251 253 254 256 262 266 272 276 275
101 105 110 115 117 117 119 119 115 112 111 111 110 108 106 106 103 102 106 112 115 113 112 121 138 159 179 187 186 180 32 24 34 45 53 74 68 47 41 28 38 91 135 173 201 204 193 190 202 229 252 260 261 256 254 258 257 255 257 260 264 269 269
95 99 103 107 108 107 108 112 113 114 113 111 110 109 108 105 106 113 118 117 114 104 96 103 115 126 146 158 155 127 68 16 7 22 28 66 61 21 20 68 68 84 120 159 193 209 213 216 230 252 268 276 279 271 265 266 264 259 257 256 259 264 267
89 95 99 100 100 100 100 105 111 118 119 115 111 111 115 119 122 131 139 134 118 103 90 87 91 95 114 125 120 102 78 37 347 334 356 69 47 331 310 137 93 35 331 326 323 275 258 259 267 278 288 290 290 291 292 290 280 270 262 257 256 257 260
78 85 90 92 93 96 98 100 106 114 118 118 117 115 119 122 120 119 120 113 99 90 81 72 68 66 79 88 89 83 56 29 32 60 55 50 56 235 196 178 212 281 297 298 299 295 290 284 284 290 292 290 296 304 304 299 295 287 277 268 262 259 258
69 71 77 83 88 92 95 96 100 106 109 110 113 115 116 116 111 105 101 95 84 70 58 49 42 37 39 43 47 68 50 28 45 63 59 52 54 59 174 163 187 226 265 292 290 291 298 301 300 304 304 304 308 308 299 296 298 297 292 287 284 277 271
63 64 68 73 78 86 92 94 97 100 99 99 100 101 100 98 93 87 83 78 66 50 39 31 24 17 13 15 16 21 30 30 39 43 38 38 40 35 27 51 80 186 315 335 328 318 318 320 319 319 320 320 317 307 299 297 298 299 299 298 296 292 289
60 62 66 67 69 75 82 86 92 95 95 96 94 89 87 87 84 81 73 59 49 45 36 27 24 18 9 8 4 350 352 3 1 356 1 17 28 36 43 20 348 357 356 345 339 333 327 323 320 318 316 316 313 307 302 300 297 297 297 298 299 296 294
57 59 63 64 64 64 64 69 79 84 86 91 92 89 90 93 90 91 88 67 53 52 47 38 32 27 21 21 21 12 10 10 354 342 347 359 15 29 30 341 315 328 335 331 326 322 318 316 314 312 310 310 308 306 304 302 301 300 299 299 299 296 292
54 53 54 56 57 58 57 60 68 74 76 82 89 92 96 101 104 112 115 98 68 59 57 45 33 27 28 30 28 24 22 19 10 2 8 14 5 354 340 318 310 312 316 317 318 318 318 317 315 313 313 312 310 309 308 307 307 307 304 302 299 296 295
50 50 49 49 50 52 54 57 63 70 76 78 85 90 91 99 112 125 132 129 116 97 75 50 36 32 32 32 30 29 27 23 23 28 32 27 2 328 317 319 322 321 318 318 320 324 327 328 330 332 332 328 323 318 316 318 320 316 309 305 302 302 304